GLO1370 SBSP-SBSR

Flight info

Callsign GLO1370
Flight time 0h 43m
Altitude 36000
Route GERTU UL201 UPONA
Aircraft B737/M-SDE2E3FGHIRWXY/LB1

Departure

Time 2026-05-09 01:23
Airport Congonhas–Deputado Freitas Nobre Airport (SBSP)

Arrival

Time 2026-05-09 02:06
Airport Prof. Eribelto Manoel Reino State Airport (SBSR)
Time Latitude Longitude Altitude Speed Heading
2026-05-09 01:10 -23.62813 -46.65756 2600 ft 0 kts 238°
2026-05-09 01:17 -23.62797 -46.65730 2600 ft 2 kts 227°
2026-05-09 01:17 -23.62788 -46.65722 2600 ft 2 kts 178°
2026-05-09 01:17 -23.62777 -46.65725 2601 ft 2 kts 149°
2026-05-09 01:17 -23.62772 -46.65729 2600 ft 0 kts 147°
2026-05-09 01:19 -23.62771 -46.65730 2600 ft 0 kts 147°
2026-05-09 01:19 -23.62778 -46.65724 2600 ft 3 kts 137°
2026-05-09 01:20 -23.62799 -46.65688 2601 ft 8 kts 122°
2026-05-09 01:20 -23.62835 -46.65640 2602 ft 10 kts 142°
2026-05-09 01:20 -23.62903 -46.65592 2602 ft 13 kts 148°
2026-05-09 01:20 -23.62989 -46.65533 2602 ft 16 kts 152°
2026-05-09 01:21 -23.63109 -46.65484 2601 ft 20 kts 149°
2026-05-09 01:21 -23.63232 -46.65401 2601 ft 21 kts 146°
2026-05-09 01:21 -23.63351 -46.65316 2601 ft 20 kts 147°
2026-05-09 01:21 -23.63468 -46.65236 2600 ft 19 kts 147°
2026-05-09 01:22 -23.63472 -46.65141 2599 ft 14 kts 49°
2026-05-09 01:22 -23.63412 -46.65130 2601 ft 14 kts 329°
2026-05-09 01:22 -23.63101 -46.65343 2609 ft 93 kts 329°
2026-05-09 01:22 -23.62352 -46.65847 2692 ft 150 kts 331°
2026-05-09 01:23 -23.61409 -46.66501 3467 ft 164 kts 328°
2026-05-09 01:23 -23.60416 -46.67234 4070 ft 185 kts 324°
2026-05-09 01:23 -23.59585 -46.68417 4470 ft 217 kts 295°
2026-05-09 01:23 -23.59141 -46.70067 5013 ft 235 kts 291°
2026-05-09 01:24 -23.58652 -46.71803 5924 ft 242 kts 292°
2026-05-09 01:24 -23.58140 -46.73563 6884 ft 245 kts 292°
2026-05-09 01:24 -23.57418 -46.75282 7408 ft 255 kts 314°
2026-05-09 01:24 -23.56030 -46.76476 8420 ft 255 kts 327°
2026-05-09 01:25 -23.54535 -46.77549 9456 ft 259 kts 328°
2026-05-09 01:25 -23.53004 -46.78625 10359 ft 266 kts 327°
2026-05-09 01:25 -23.51372 -46.79772 10704 ft 294 kts 327°
2026-05-09 01:25 -23.49571 -46.81038 10983 ft 320 kts 327°
2026-05-09 01:26 -23.47666 -46.82379 11599 ft 331 kts 327°
2026-05-09 01:26 -23.45707 -46.83765 12370 ft 338 kts 326°
2026-05-09 01:26 -23.43723 -46.85171 13204 ft 343 kts 326°
2026-05-09 01:26 -23.41706 -46.86602 13985 ft 349 kts 326°
2026-05-09 01:27 -23.39658 -46.88057 14691 ft 353 kts 326°
2026-05-09 01:27 -23.37589 -46.89526 15467 ft 357 kts 327°
2026-05-09 01:27 -23.35493 -46.91013 16204 ft 362 kts 327°
2026-05-09 01:27 -23.33369 -46.92523 16921 ft 367 kts 327°
2026-05-09 01:28 -23.31219 -46.94050 17665 ft 371 kts 327°
2026-05-09 01:28 -23.29043 -46.95594 18343 ft 376 kts 327°
2026-05-09 01:28 -23.26843 -46.97154 18968 ft 379 kts 326°
2026-05-09 01:28 -23.24642 -46.98715 19760 ft 377 kts 326°
2026-05-09 01:29 -23.22441 -47.00276 20434 ft 379 kts 326°
2026-05-09 01:29 -23.20214 -47.01856 20983 ft 385 kts 326°
2026-05-09 01:29 -23.17961 -47.03453 21575 ft 389 kts 326°
2026-05-09 01:29 -23.15689 -47.05062 22244 ft 390 kts 325°
2026-05-09 01:30 -23.13407 -47.06678 22859 ft 393 kts 325°
2026-05-09 01:30 -23.11106 -47.08306 23475 ft 396 kts 325°
2026-05-09 01:30 -23.08791 -47.09943 24002 ft 398 kts 325°
2026-05-09 01:30 -23.06463 -47.11589 24494 ft 401 kts 325°
2026-05-09 01:31 -23.04119 -47.13246 24977 ft 404 kts 325°
2026-05-09 01:31 -23.01750 -47.14919 25431 ft 407 kts 324°
2026-05-09 01:31 -22.99371 -47.16600 25891 ft 410 kts 324°
2026-05-09 01:31 -22.96975 -47.18291 26347 ft 412 kts 324°
2026-05-09 01:32 -22.94567 -47.19989 26848 ft 414 kts 324°
2026-05-09 01:32 -22.92148 -47.21695 27320 ft 415 kts 324°
2026-05-09 01:32 -22.89719 -47.23407 27729 ft 418 kts 324°
2026-05-09 01:32 -22.87268 -47.25134 28119 ft 421 kts 324°
2026-05-09 01:33 -22.84805 -47.26869 28505 ft 424 kts 324°
2026-05-09 01:33 -22.82358 -47.28599 28841 ft 427 kts 323°
2026-05-09 01:33 -22.80023 -47.30650 29193 ft 426 kts 314°
2026-05-09 01:33 -22.78064 -47.32995 29613 ft 426 kts 308°
2026-05-09 01:34 -22.76148 -47.35451 30032 ft 427 kts 308°
2026-05-09 01:34 -22.74230 -47.37901 30484 ft 425 kts 308°
2026-05-09 01:34 -22.72320 -47.40328 31085 ft 421 kts 309°
2026-05-09 01:34 -22.70427 -47.42724 31704 ft 416 kts 308°
2026-05-09 01:35 -22.68548 -47.45095 32234 ft 414 kts 308°
2026-05-09 01:35 -22.66669 -47.47463 32682 ft 414 kts 308°
2026-05-09 01:35 -22.64793 -47.49822 33193 ft 412 kts 308°
2026-05-09 01:35 -22.62932 -47.52161 33764 ft 408 kts 308°
2026-05-09 01:36 -22.61081 -47.54484 34271 ft 405 kts 308°
2026-05-09 01:36 -22.59238 -47.56798 34653 ft 405 kts 307°
2026-05-09 01:36 -22.57398 -47.59108 34975 ft 406 kts 307°
2026-05-09 01:36 -22.55553 -47.61423 35329 ft 405 kts 307°
2026-05-09 01:37 -22.53714 -47.63729 35711 ft 404 kts 307°
2026-05-09 01:37 -22.51878 -47.66030 35966 ft 406 kts 307°
2026-05-09 01:37 -22.48167 -47.70681 35960 ft 408 kts 307°
2026-05-09 01:38 -22.44480 -47.75291 35964 ft 401 kts 307°
2026-05-09 01:38 -22.40831 -47.79851 35978 ft 400 kts 307°
2026-05-09 01:39 -22.37193 -47.84400 35984 ft 400 kts 307°
2026-05-09 01:39 -22.33577 -47.88913 35977 ft 400 kts 307°
2026-05-09 01:40 -22.29936 -47.93453 35980 ft 400 kts 307°
2026-05-09 01:40 -22.26290 -47.97996 35982 ft 401 kts 307°
2026-05-09 01:41 -22.22636 -48.02544 35986 ft 401 kts 307°
2026-05-09 01:41 -22.18974 -48.07099 35977 ft 402 kts 307°
2026-05-09 01:42 -22.15304 -48.11659 35982 ft 403 kts 308°
2026-05-09 01:42 -22.11627 -48.16225 35970 ft 403 kts 307°
2026-05-09 01:43 -22.07942 -48.20797 35977 ft 404 kts 307°
2026-05-09 01:43 -22.04250 -48.25372 35981 ft 405 kts 308°
2026-05-09 01:44 -22.00547 -48.29958 35976 ft 405 kts 308°
2026-05-09 01:44 -21.96866 -48.34513 35968 ft 406 kts 308°
2026-05-09 01:45 -21.93153 -48.39102 35971 ft 406 kts 308°
2026-05-09 01:45 -21.89432 -48.43700 35574 ft 413 kts 308°
2026-05-09 01:46 -21.87554 -48.46019 35366 ft 404 kts 308°
2026-05-09 01:46 -21.85713 -48.48287 35062 ft 403 kts 308°
2026-05-09 01:46 -21.83865 -48.50566 34847 ft 406 kts 308°
2026-05-09 01:46 -21.82003 -48.52863 34619 ft 408 kts 308°
2026-05-09 01:47 -21.80140 -48.55159 34173 ft 407 kts 309°
2026-05-09 01:47 -21.78266 -48.57468 33263 ft 410 kts 309°
2026-05-09 01:47 -21.76390 -48.59778 32401 ft 411 kts 309°
2026-05-09 01:47 -21.74500 -48.62103 31504 ft 413 kts 309°
2026-05-09 01:48 -21.72602 -48.64438 30586 ft 416 kts 309°
2026-05-09 01:48 -21.70700 -48.66776 29883 ft 414 kts 310°
2026-05-09 01:48 -21.68809 -48.69099 29087 ft 410 kts 310°
2026-05-09 01:48 -21.66936 -48.71399 28371 ft 405 kts 310°
2026-05-09 01:49 -21.65090 -48.73666 27681 ft 401 kts 310°
2026-05-09 01:49 -21.63265 -48.75905 27010 ft 396 kts 310°
2026-05-09 01:49 -21.61460 -48.78119 26347 ft 392 kts 310°
2026-05-09 01:49 -21.59673 -48.80311 25677 ft 388 kts 310°
2026-05-09 01:50 -21.57903 -48.82481 25029 ft 385 kts 310°
2026-05-09 01:50 -21.56145 -48.84636 24359 ft 382 kts 310°
2026-05-09 01:50 -21.54393 -48.86783 23693 ft 380 kts 310°
2026-05-09 01:50 -21.52653 -48.88914 22938 ft 378 kts 310°
2026-05-09 01:51 -21.50923 -48.91032 22246 ft 374 kts 310°
2026-05-09 01:51 -21.49216 -48.93120 21574 ft 371 kts 310°
2026-05-09 01:51 -21.47522 -48.95191 20921 ft 367 kts 310°
2026-05-09 01:51 -21.45844 -48.97243 20282 ft 364 kts 310°
2026-05-09 01:52 -21.44181 -48.99275 19648 ft 361 kts 310°
2026-05-09 01:52 -21.42548 -49.01271 18993 ft 360 kts 310°
2026-05-09 01:52 -21.40894 -49.03291 18341 ft 359 kts 310°
2026-05-09 01:52 -21.39245 -49.05305 17619 ft 359 kts 310°
2026-05-09 01:53 -21.37604 -49.07307 16966 ft 356 kts 311°
2026-05-09 01:53 -21.35979 -49.09290 16323 ft 353 kts 311°
2026-05-09 01:53 -21.34362 -49.11262 15702 ft 350 kts 311°
2026-05-09 01:53 -21.32755 -49.13221 15075 ft 348 kts 311°
2026-05-09 01:54 -21.31158 -49.15167 14426 ft 347 kts 311°
2026-05-09 01:54 -21.29567 -49.17106 13791 ft 346 kts 311°
2026-05-09 01:54 -21.27977 -49.19042 13084 ft 344 kts 312°
2026-05-09 01:54 -21.26407 -49.20954 12437 ft 341 kts 312°
2026-05-09 01:55 -21.24849 -49.22850 11801 ft 337 kts 312°
2026-05-09 01:55 -21.23306 -49.24728 11174 ft 334 kts 312°
2026-05-09 01:55 -21.21774 -49.26590 10581 ft 331 kts 313°
2026-05-09 01:55 -21.20310 -49.28372 10395 ft 307 kts 313°
2026-05-09 01:56 -21.18955 -49.30021 10251 ft 283 kts 313°
2026-05-09 01:56 -21.17703 -49.31545 10122 ft 263 kts 313°
2026-05-09 01:56 -21.16911 -49.32507 10059 ft 258 kts 313°
2026-05-09 01:56 -21.15727 -49.33943 9915 ft 258 kts 314°
2026-05-09 01:57 -21.14521 -49.35404 9527 ft 263 kts 313°
2026-05-09 01:57 -21.13311 -49.36871 9161 ft 261 kts 313°
2026-05-09 01:57 -21.12112 -49.38325 8790 ft 260 kts 313°
2026-05-09 01:57 -21.10918 -49.39773 8418 ft 259 kts 313°
2026-05-09 01:58 -21.09731 -49.41213 8050 ft 258 kts 313°
2026-05-09 01:58 -21.08547 -49.42649 7698 ft 257 kts 313°
2026-05-09 01:58 -21.07369 -49.44077 7325 ft 255 kts 313°
2026-05-09 01:58 -21.06192 -49.45503 6958 ft 255 kts 313°
2026-05-09 01:59 -21.05022 -49.46922 6596 ft 253 kts 312°
2026-05-09 01:59 -21.03857 -49.48333 6200 ft 254 kts 313°
2026-05-09 01:59 -21.02691 -49.49745 5850 ft 252 kts 313°
2026-05-09 01:59 -21.01558 -49.51116 5706 ft 242 kts 313°
2026-05-09 02:00 -21.00372 -49.52314 5580 ft 230 kts 329°
2026-05-09 02:00 -20.98945 -49.52991 5502 ft 220 kts 340°
2026-05-09 02:00 -20.97523 -49.53495 5400 ft 210 kts 341°
2026-05-09 02:00 -20.96165 -49.53965 5316 ft 200 kts 341°
2026-05-09 02:01 -20.94870 -49.54418 5205 ft 192 kts 340°
2026-05-09 02:01 -20.93598 -49.54777 5009 ft 187 kts 356°
2026-05-09 02:01 -20.92343 -49.54455 4800 ft 187 kts 22°
2026-05-09 02:01 -20.91348 -49.53564 4572 ft 187 kts 43°
2026-05-09 02:02 -20.90543 -49.52501 4361 ft 180 kts 44°
2026-05-09 02:02 -20.89783 -49.51481 4156 ft 170 kts 44°
2026-05-09 02:02 -20.89078 -49.50532 3937 ft 154 kts 44°
2026-05-09 02:02 -20.88468 -49.49709 3786 ft 133 kts 43°
2026-05-09 02:03 -20.87905 -49.48954 3596 ft 127 kts 41°
2026-05-09 02:03 -20.87351 -49.48219 3425 ft 128 kts 42°
2026-05-09 02:03 -20.86796 -49.47482 3270 ft 126 kts 41°
2026-05-09 02:03 -20.86248 -49.46748 3101 ft 125 kts 41°
2026-05-09 02:04 -20.85712 -49.46035 2935 ft 121 kts 44°
2026-05-09 02:04 -20.85185 -49.45332 2770 ft 124 kts 43°
2026-05-09 02:04 -20.84642 -49.44612 2604 ft 124 kts 44°
2026-05-09 02:04 -20.84094 -49.43883 2452 ft 128 kts 47°
2026-05-09 02:05 -20.83535 -49.43139 2275 ft 128 kts 51°
2026-05-09 02:05 -20.82980 -49.42388 2103 ft 129 kts 51°
2026-05-09 02:05 -20.82415 -49.41635 1899 ft 129 kts 51°
2026-05-09 02:05 -20.81871 -49.40910 1759 ft 106 kts 50°
2026-05-09 02:06 -20.81646 -49.40612 1755 ft 0 kts 52°